Surat Thani, Thailand

5:45 PM +07 on December 11, 2017 (GMT +0700)
Surat Thani

Weather History for VTSB - November, 2012

Change the Weather History Date:

Wednesday, November 21, 2012

  Actual Average Record
Temperature  
Mean Temperature 79 °F -  
Max Temperature 85 °F 85 °F - ()
Min Temperature 73 °F 71 °F - ()
Cooling Degree Days 14    
Growing Degree Days 29 (Base 50)    
Moisture  
Dew Point 77 °F    
Average Humidity 93    
Maximum Humidity 100    
Minimum Humidity 77    
Precipitation  
Precipitation 0.00 in 0.25 in - ()
Sea Level Pressure  
Sea Level Pressure 29.85 in    
Wind  
Wind Speed 4 mph ()    
Max Wind Speed 16 mph    
Max Gust Speed -    
Visibility 4.1 miles    
Events Fog , Rain    
T = Trace of Precipitation, MM = Missing Value Source: Averaged Metar Reports

Daily Weather History Graph

Daily Weather History Graph

Search for Another Location

Airport or City:

Trip Planner

Search our weather history database for the weather conditions in past years. The results will help you decide how hot, cold, wet, or windy it might be!

Date:

Astronomy

Nov. 21, 2012 Rise Set
Actual Time 6:19 AM +07 5:59 PM +07
Civil Twilight 5:56 AM +07 6:21 PM +07
Nautical Twilight 5:31 AM +07 6:47 PM +07
Astronomical Twilight 5:05 AM +07 7:13 PM +07
Moon 12:52 PM +07 (11/21) 12:20 AM +07 (11/21)
Length of Visible Light 12h 24m
Length of Day
11h 40m
First Quarter, 56% of the Moon is Illuminated
Nov 21
First Quarter
Nov 28
Full
Dec 6
Last Quarter
Dec 13
New
Dec 20
First Quarter

Hourly Weather History & Observations

Time (+07) Temp. Heat Index Dew Point Humidity Pressure Visibility Wind Dir Wind Speed Gust Speed Precip Events Conditions
12:00 AM 75.2 °F - 75.2 °F 100% 29.86 in 3.7 mi WNW 3.5 mph - N/A   Partly Cloudy
1:00 AM 75 °F - 74 °F 95% 29.86 in 3 mi Calm Calm - -   Mist
1:00 AM 75.2 °F - 75.2 °F 100% 29.86 in 3.7 mi Calm Calm - N/A   Partly Cloudy
6:00 AM 73.4 °F - 73.4 °F 100% 29.83 in 3.7 mi Calm Calm - N/A   Partly Cloudy
7:00 AM 74 °F - 73 °F 96% 29.86 in 0 mi Calm Calm - - Fog Heavy Fog
7:00 AM 73.4 °F - 73.4 °F 100% 29.86 in 0.2 mi SW 3.5 mph - N/A Fog Fog
8:00 AM 75.2 °F - 75.2 °F 100% 29.89 in 3.7 mi Calm Calm - N/A   Mostly Cloudy
9:00 AM 77.0 °F - 77.0 °F 100% 29.92 in 3.7 mi WNW 3.5 mph - N/A   Mostly Cloudy
10:00 AM 80.6 °F 87.1 °F 77.0 °F 89% 29.95 in 5.0 mi North 4.6 mph - N/A   Mostly Cloudy
11:00 AM 82.4 °F 92.4 °F 78.8 °F 89% 29.92 in 5.0 mi NNE 3.5 mph - N/A   Mostly Cloudy
12:00 PM 84.2 °F 96.1 °F 78.8 °F 84% 29.89 in 5.0 mi East 4.6 mph - N/A   Overcast
12:20 PM 84.2 °F 96.1 °F 78.8 °F 84% 29.89 in 5.0 mi ENE 6.9 mph - N/A   Overcast
1:00 PM 84 °F - 78 °F 77% 29.87 in 4 mi NNE 6.9 mph - -   Mist
1:00 PM 84.2 °F 96.1 °F 78.8 °F 84% 29.86 in 5.0 mi NE 16.1 mph - N/A   Overcast
2:00 PM 80.6 °F 88.1 °F 78.8 °F 94% 29.83 in 3.7 mi North 10.4 mph - N/A Rain Light Rain
3:00 PM 80.6 °F 87.1 °F 77.0 °F 89% 29.80 in 5.0 mi ENE 11.5 mph - N/A   Mostly Cloudy
4:00 PM 80.6 °F 87.1 °F 77.0 °F 89% 29.77 in 5.0 mi NNE 12.7 mph - N/A   Overcast
5:00 PM 80.6 °F 87.1 °F 77.0 °F 89% 29.80 in 5.0 mi ENE 8.1 mph - N/A   Overcast
6:00 PM 78.8 °F - 77.0 °F 94% 29.77 in 5.0 mi NNW 4.6 mph - N/A   Mostly Cloudy
7:00 PM 79 °F - 76 °F 87% 29.79 in 4 mi Calm Calm - -   Mist
7:00 PM 78.8 °F - 77.0 °F 94% 29.80 in 5.0 mi NNW 4.6 mph - N/A   Mostly Cloudy
8:00 PM 77.0 °F - 77.0 °F 100% 29.80 in 5.0 mi WNW 4.6 mph - N/A   Mostly Cloudy
9:00 PM 77.0 °F - 77.0 °F 100% 29.83 in 5.0 mi NW 5.8 mph - N/A   Mostly Cloudy